Location: Newark
(49.1000°N, 0.4667°W)
Time: 10:29:26
(UTC+00:00)

BEESAT 3 - Pass Details

Date: 12 July 2020
Orbit: 482 x 522 km, 64.9° (Epoch: 10 August)

Event Time Altitude Azimuth Distance (km) Brightness Sun altitude
Rises 02:45:13 0° 324° (NW) 2,655 ? -10.8°
Reaches altitude 10° 02:47:33 10° 334° (NNW) 1,759 ? -10.6°
Maximum altitude 02:51:12 35° 41° (NE) 846 ? -10.2°
Drops below altitude 10° 02:54:47 10° 109° (ESE) 1,732 ? -9.8°
Sets 02:57:04 0° 119° (ESE) 2,606 ? -9.6°
